EN

Hourly Weather Budki

Today, 16 April, Friday

Time Temperature Precipitation Wind Pressure Humidity
00:00 +2°C° 0.1 mm 3 mps 745 mmHg 99%
01:00 +2°C° 0.1 mm 3 mps 745 mmHg 99%
02:00 +2°C° 0.3 mm 3 mps 744 mmHg 99%
03:00 +1°C° 0.3 mm 4 mps 744 mmHg 99%
04:00 +1°C° 0.3 mm 4 mps 744 mmHg 99%
05:00 +1°C° 0.6 mm 4 mps 744 mmHg 99%
06:00 +1°C° 0.6 mm 4 mps 744 mmHg 99%
07:00 +1°C° 0.6 mm 5 mps 744 mmHg 98%
08:00 +1°C° 0.5 mm 5 mps 744 mmHg 98%
09:00 +2°C° 0.5 mm 5 mps 744 mmHg 98%
10:00 +2°C° 0.5 mm 5 mps 744 mmHg 97%
11:00 +2°C° 0 mm 5 mps 744 mmHg 97%
12:00 +3°C° 0 mm 5 mps 744 mmHg 97%
13:00 +3°C° 0 mm 5 mps 744 mmHg 96%
14:00 +3°C° 0.1 mm 5 mps 744 mmHg 96%
15:00 +3°C° 0.1 mm 5 mps 744 mmHg 96%
16:00 +3°C° 0.1 mm 5 mps 744 mmHg 96%
17:00 +4°C° 0.1 mm 4 mps 744 mmHg 97%
18:00 +4°C° 0.1 mm 4 mps 745 mmHg 97%
19:00 +4°C° 0.1 mm 4 mps 745 mmHg 98%
20:00 +4°C° 0.1 mm 4 mps 745 mmHg 98%
21:00 +4°C° 0.1 mm 4 mps 745 mmHg 98%
22:00 +4°C° 0.1 mm 4 mps 745 mmHg 98%
23:00 +4°C° 0.8 mm 4 mps 745 mmHg 98%

Tomorrow, 17 April, Saturday

Time Temperature Precipitation Wind Pressure Humidity
00:00 +4°C° 0.8 mm 3 mps 745 mmHg 98%
01:00 +4°C° 0.8 mm 3 mps 745 mmHg 98%
02:00 +4°C° 0.2 mm 3 mps 745 mmHg 98%
03:00 +4°C° 0.2 mm 3 mps 745 mmHg 98%
04:00 +4°C° 0.2 mm 3 mps 745 mmHg 98%
05:00 +5°C° 0.6 mm 2 mps 745 mmHg 98%
06:00 +5°C° 0.6 mm 2 mps 745 mmHg 98%
07:00 +5°C° 0.6 mm 2 mps 746 mmHg 98%
08:00 +6°C° 0.2 mm 2 mps 746 mmHg 96%
09:00 +6°C° 0.2 mm 2 mps 746 mmHg 93%
10:00 +7°C° 0.2 mm 2 mps 747 mmHg 91%
11:00 +7°C° 0 mm 2 mps 747 mmHg 88%
12:00 +8°C° 0 mm 2 mps 747 mmHg 86%
13:00 +8°C° 0 mm 3 mps 747 mmHg 83%
14:00 +8°C° 0 mm 3 mps 748 mmHg 81%
15:00 +9°C° 0 mm 3 mps 748 mmHg 78%
16:00 +9°C° 0 mm 3 mps 748 mmHg 76%
17:00 +8°C° 0 mm 2 mps 748 mmHg 79%
18:00 +7°C° 0 mm 2 mps 748 mmHg 82%
19:00 +6°C° 0 mm 2 mps 748 mmHg 86%
20:00 +6°C° 0 mm 2 mps 748 mmHg 88%
21:00 +5°C° 0 mm 2 mps 748 mmHg 90%
22:00 +4°C° 0 mm 2 mps 749 mmHg 92%
23:00 +4°C° 0 mm 2 mps 748 mmHg 93%

Day after tomorrow, 18 April, Sunday

Time Temperature Precipitation Wind Pressure Humidity
00:00 +4°C° 0 mm 2 mps 748 mmHg 93%
01:00 +4°C° 0 mm 2 mps 748 mmHg 93%
02:00 +3°C° 0 mm 2 mps 748 mmHg 94%
03:00 +3°C° 0 mm 2 mps 748 mmHg 94%
04:00 +3°C° 0 mm 2 mps 748 mmHg 94%
05:00 +4°C° 0 mm 2 mps 748 mmHg 92%
06:00 +4°C° 0 mm 3 mps 748 mmHg 90%
07:00 +5°C° 0 mm 3 mps 748 mmHg 87%
08:00 +7°C° 0.1 mm 3 mps 748 mmHg 87%
09:00 +8°C° 0.1 mm 3 mps 747 mmHg 87%
10:00 +8°C° 0.1 mm 3 mps 747 mmHg 87%
11:00 +10°C° 0.1 mm 3 mps 747 mmHg 82%
12:00 +11°C° 0.1 mm 3 mps 747 mmHg 77%
13:00 +12°C° 0.1 mm 3 mps 747 mmHg 72%
14:00 +12°C° 0.2 mm 4 mps 747 mmHg 74%
15:00 +12°C° 0.2 mm 4 mps 747 mmHg 76%
16:00 +12°C° 0.2 mm 4 mps 746 mmHg 77%
17:00 +11°C° 0 mm 4 mps 747 mmHg 79%
18:00 +10°C° 0 mm 4 mps 747 mmHg 81%
19:00 +8°C° 0 mm 4 mps 747 mmHg 83%
20:00 +8°C° 0 mm 4 mps 747 mmHg 84%
21:00 +8°C° 0 mm 4 mps 747 mmHg 85%
22:00 +7°C° 0 mm 4 mps 747 mmHg 87%
23:00 +7°C° 0 mm 4 mps 747 mmHg 88%

19 April, Monday

Time Temperature Precipitation Wind Pressure Humidity
00:00 +7°C° 0 mm 3 mps 747 mmHg 90%
01:00 +5°C° 0 mm 3 mps 747 mmHg 92%
02:00 +4°C° 0 mm 3 mps 747 mmHg 92%
03:00 +4°C° 0 mm 3 mps 747 mmHg 93%
04:00 +3°C° 0 mm 3 mps 747 mmHg 94%
05:00 +4°C° 0 mm 3 mps 747 mmHg 88%
06:00 +5°C° 0 mm 3 mps 747 mmHg 83%
07:00 +7°C° 0 mm 3 mps 747 mmHg 77%
08:00 +8°C° 0 mm 3 mps 747 mmHg 71%
09:00 +9°C° 0 mm 3 mps 747 mmHg 66%
10:00 +11°C° 0 mm 4 mps 746 mmHg 61%
11:00 +11°C° 0.1 mm 4 mps 746 mmHg 61%
12:00 +11°C° 0.1 mm 4 mps 746 mmHg 61%
13:00 +11°C° 0.1 mm 4 mps 745 mmHg 61%
14:00 +11°C° 0.1 mm 4 mps 745 mmHg 63%
15:00 +10°C° 0.1 mm 4 mps 745 mmHg 65%
16:00 +9°C° 0.1 mm 5 mps 744 mmHg 67%
17:00 +8°C° 0 mm 4 mps 744 mmHg 72%
18:00 +7°C° 0 mm 4 mps 744 mmHg 77%
19:00 +7°C° 0 mm 3 mps 744 mmHg 82%
20:00 +7°C° 0 mm 3 mps 744 mmHg 84%
21:00 +7°C° 0 mm 3 mps 744 mmHg 85%
22:00 +7°C° 0 mm 3 mps 743 mmHg 86%
23:00 +5°C° 0 mm 3 mps 743 mmHg 88%

20 April, Tuesday

Time Temperature Precipitation Wind Pressure Humidity
00:00 +4°C° 0 mm 3 mps 743 mmHg 91%
01:00 +3°C° 0 mm 3 mps 742 mmHg 93%
02:00 +3°C° 0 mm 3 mps 742 mmHg 92%
03:00 +4°C° 0 mm 3 mps 742 mmHg 91%
04:00 +4°C° 0 mm 4 mps 741 mmHg 90%
05:00 +4°C° 0.1 mm 4 mps 741 mmHg 90%
06:00 +4°C° 0.1 mm 4 mps 741 mmHg 89%
07:00 +5°C° 0.1 mm 4 mps 741 mmHg 89%
08:00 +5°C° 0.2 mm 5 mps 740 mmHg 87%
09:00 +5°C° 0.2 mm 5 mps 740 mmHg 86%
10:00 +6°C° 0.2 mm 5 mps 740 mmHg 84%
11:00 +6°C° 0.2 mm 5 mps 740 mmHg 82%
12:00 +7°C° 0.2 mm 5 mps 740 mmHg 80%
13:00 +7°C° 0.2 mm 5 mps 739 mmHg 78%
14:00 +7°C° 0.2 mm 5 mps 739 mmHg 78%
15:00 +7°C° 0.2 mm 5 mps 739 mmHg 78%
16:00 +7°C° 0.2 mm 5 mps 739 mmHg 78%
17:00 +7°C° 0.1 mm 5 mps 739 mmHg 80%
18:00 +6°C° 0.1 mm 5 mps 738 mmHg 82%
19:00 +5°C° 0.1 mm 4 mps 738 mmHg 85%
20:00 +5°C° 0 mm 4 mps 738 mmHg 86%
21:00 +5°C° 0 mm 4 mps 738 mmHg 86%
22:00 +5°C° 0 mm 4 mps 738 mmHg 87%
23:00 +3°C° 0 mm 5 mps 738 mmHg 89%

21 April, Wednesday

Time Temperature Precipitation Wind Pressure Humidity
00:00 +3°C° 0 mm 5 mps 737 mmHg 90%
01:00 +2°C° 0 mm 6 mps 737 mmHg 92%
02:00 +2°C° 0 mm 6 mps 737 mmHg 91%
03:00 +2°C° 0 mm 6 mps 737 mmHg 90%
04:00 0°C° 0 mm 7 mps 737 mmHg 89%
05:00 +2°C° 0 mm 7 mps 738 mmHg 86%
06:00 +3°C° 0 mm 7 mps 738 mmHg 84%
07:00 +3°C° 0 mm 7 mps 738 mmHg 82%
08:00 +4°C° 0 mm 7 mps 738 mmHg 77%
09:00 +5°C° 0 mm 7 mps 739 mmHg 73%
10:00 +6°C° 0 mm 7 mps 739 mmHg 68%
11:00 +6°C° 0 mm 7 mps 739 mmHg 66%
12:00 +8°C° 0 mm 7 mps 740 mmHg 63%
13:00 +8°C° 0 mm 7 mps 740 mmHg 60%
14:00 +8°C° 0 mm 7 mps 740 mmHg 62%
15:00 +8°C° 0 mm 6 mps 741 mmHg 64%
16:00 +8°C° 0 mm 5 mps 741 mmHg 66%
17:00 +7°C° 0 mm 4 mps 741 mmHg 71%
18:00 +6°C° 0 mm 4 mps 742 mmHg 76%
19:00 +5°C° 0 mm 3 mps 742 mmHg 80%
20:00 +5°C° 0 mm 3 mps 742 mmHg 84%
21:00 +4°C° 0 mm 3 mps 742 mmHg 87%
22:00 +4°C° 0 mm 3 mps 743 mmHg 91%
23:00 +3°C° 0 mm 3 mps 743 mmHg 91%
Show more

We Need Your Consent

Meteoprog and our Service Providers may store and access personal data such as cookies, device identifiers or other similar technologies on your device and process such data to personalise content and ads, as well as provide social media features and to analyse the traffic.

  • Store and/or access information on your device

    Cookies, device identifiers or other information can be stored or accessed on your device for the purposes indicated above.

  • Personalised ads and content, ad and content measurement, audience insights, and products development

    Ads and content can be personalised based on a profile. More data can be added to better personalise ads and content. Ad and content performance can be measured. Insights about the audience who saw the ads and content can be derived. Such data can be used to develop or improve user’s experience, systems and software.

By clicking ‘I Agree’ you will allow the use of indicated cookies, device identifiers, web beacons or other similar technologies. Your settings can be changed in the browser on your device.

For certain purposes, legitimate interests may be relied on, rather than consent. You can read more about this in our Privacy and Cookie Policy.